Location: New Frontier Mobile Home Park
(32.8448°N, 116.9675°W)
Time: 22:19:00
(UTC+00:00)

Cosmos 2034 Rocket - Pass Details

Date: 14 July 2020
Orbit: 958 x 1000 km, 82.9° (Epoch: 05 August)

Event Time Altitude Azimuth Distance (km) Brightness Sun altitude
Exits shadow 10:52:55 16° 168° (SSE) 2,281 5.6 -20.8°
Maximum altitude 10:57:49 60° 92° (E) 1,088 4.4 -20.1°
Drops below altitude 10° 11:03:52 10° 14° (NNE) 2,699 7.2 -19.2°
Sets 11:06:24 0° 11° (N) 3,651 7.9 -18.8°
